This is the latest recevied weather packets stored in our database for station/object W2JBO-5. If no packets are shown the sender has not sent any weather packets the latest 10 day(s).
| Time | Temp. | Humidity | Pressure | Rain* | Wind** | Luminosity | Snow |
|---|---|---|---|---|---|---|---|
| 1777673217 | 12.78° C | 99% | 1012.1 hPa | 4.32 mm | - | 27 W/m² | - |
| 1777672914 | 12.78° C | 99% | 1011.5 hPa | 8.89 mm | - | 36 W/m² | - |
| 1777672611 | 12.78° C | 99% | 1011.7 hPa | 8.89 mm | - | 30 W/m² | - |
| 1777672306 | 12.78° C | 99% | 1013.5 hPa | 6.6 mm | - | 19 W/m² | - |
| 1777672001 | 12.78° C | 99% | 1013.1 hPa | 3.05 mm | - | 5 W/m² | - |
| 1777671697 | 12.78° C | 99% | 1013.1 hPa | 3.05 mm | - | 4 W/m² | - |
| 1777671394 | 12.78° C | 99% | 1012.6 hPa | 4.83 mm | - | 16 W/m² | - |
| 1777671090 | 12.78° C | 99% | 1012 hPa | 6.1 mm | - | 28 W/m² | - |
| 1777670787 | 12.78° C | 99% | 1011 hPa | 4.32 mm | - | 50 W/m² | - |
| 1777670483 | 12.78° C | 99% | 1011 hPa | 3.05 mm | - | 55 W/m² | - |
| 1777670180 | 13.33° C | 99% | 1010.9 hPa | 4.83 mm | - | 38 W/m² | - |
| 1777669878 | 13.33° C | 99% | 1010.9 hPa | 6.6 mm | - | 35 W/m² | - |
| 1777669575 | 13.33° C | 99% | 1011.1 hPa | 7.87 mm | - | 21 W/m² | - |
| 1777669271 | 13.33° C | 99% | 1012.7 hPa | 10.67 mm | - | 17 W/m² | - |
| 1777668968 | 13.33° C | 99% | 1012.7 hPa | 13.72 mm | - | 16 W/m² | - |
| 1777668665 | 13.33° C | 99% | 1012.7 hPa | 16.76 mm | - | 11 W/m² | - |
| 1777668362 | 13.33° C | 99% | 1012.5 hPa | 16.76 mm | - | 5 W/m² | - |
| 1777668057 | 13.33° C | 99% | 1012.5 hPa | 19.81 mm | - | 10 W/m² | - |
| 1777667754 | 13.33° C | 99% | 1012.5 hPa | 15.49 mm | - | 14 W/m² | - |
| 1777667452 | 13.89° C | 99% | 1012.4 hPa | 7.87 mm | - | 11 W/m² | - |
| 1777667149 | 13.89° C | 99% | 1012.1 hPa | 7.11 mm | - | 10 W/m² | - |
| 1777666845 | 13.89° C | 99% | 1011.7 hPa | 8.89 mm | - | 12 W/m² | - |
| 1777666543 | 13.89° C | 99% | 1011.4 hPa | 12.7 mm | - | 12 W/m² | - |
| 1777666239 | 13.89° C | 99% | 1012 hPa | 12.7 mm | - | 13 W/m² | - |
| 1777665936 | 13.89° C | 99% | 1012.3 hPa | 10.16 mm | - | 10 W/m² | - |
* Rain latest hour (hover to see other rain measurements)
** Current wind speed in m/s (hover to see current wind gust speed)